HVN1670 VVDN-VVCI

Flight info

Callsign HVN1670
Flight time 0h 56m
Altitude 33000
Route PHULU Q1 MAREL DCT BATOT
Aircraft A321/M-SDE3FGHIRWY/LB1

Departure

Time 2026-04-16 13:10
Airport Da Nang International Airport (VVDN)

Arrival

Time 2026-04-16 14:06
Airport Cat Bi International Airport (VVCI)
Time Latitude Longitude Altitude Speed Heading
2026-04-16 12:34 16.05818 108.20132 34 ft 0 kts 82°
2026-04-16 13:00 16.05817 108.20122 34 ft 3 kts 79°
2026-04-16 13:00 16.05812 108.20102 34 ft 3 kts 69°
2026-04-16 13:00 16.05804 108.20083 32 ft 3 kts 58°
2026-04-16 13:00 16.05792 108.20066 33 ft 3 kts 44°
2026-04-16 13:01 16.05776 108.20053 32 ft 3 kts 28°
2026-04-16 13:01 16.05759 108.20045 32 ft 3 kts
2026-04-16 13:01 16.05744 108.20044 33 ft 1 kts 352°
2026-04-16 13:01 16.05743 108.20044 33 ft 0 kts 352°
2026-04-16 13:03 16.05753 108.20036 32 ft 4 kts 304°
2026-04-16 13:04 16.05742 108.19992 34 ft 9 kts 210°
2026-04-16 13:04 16.05667 108.19997 34 ft 15 kts 172°
2026-04-16 13:04 16.05540 108.20016 34 ft 20 kts 172°
2026-04-16 13:04 16.05401 108.20036 34 ft 21 kts 172°
2026-04-16 13:05 16.05256 108.20056 34 ft 21 kts 172°
2026-04-16 13:05 16.05107 108.20078 34 ft 22 kts 172°
2026-04-16 13:05 16.04953 108.20100 33 ft 23 kts 172°
2026-04-16 13:05 16.04794 108.20125 33 ft 23 kts 171°
2026-04-16 13:06 16.04633 108.20147 34 ft 24 kts 173°
2026-04-16 13:06 16.04467 108.20172 33 ft 24 kts 172°
2026-04-16 13:06 16.04300 108.20195 34 ft 24 kts 172°
2026-04-16 13:06 16.04133 108.20220 34 ft 24 kts 172°
2026-04-16 13:07 16.03964 108.20243 35 ft 25 kts 172°
2026-04-16 13:07 16.03794 108.20268 35 ft 25 kts 172°
2026-04-16 13:07 16.03599 108.20297 34 ft 30 kts 172°
2026-04-16 13:07 16.03395 108.20326 34 ft 30 kts 172°
2026-04-16 13:08 16.03188 108.20356 33 ft 29 kts 172°
2026-04-16 13:08 16.03084 108.20340 33 ft 13 kts 239°
2026-04-16 13:08 16.03082 108.20240 30 ft 15 kts 303°
2026-04-16 13:08 16.03123 108.20225 31 ft 0 kts 352°
2026-04-16 13:09 16.03126 108.20224 31 ft 2 kts 352°
2026-04-16 13:09 16.03305 108.20199 33 ft 62 kts 352°
2026-04-16 13:09 16.03971 108.20102 34 ft 129 kts 352°
2026-04-16 13:09 16.05042 108.19946 58 ft 177 kts 352°
2026-04-16 13:10 16.06245 108.19774 732 ft 173 kts 353°
2026-04-16 13:10 16.07441 108.19597 1369 ft 174 kts 353°
2026-04-16 13:10 16.08659 108.19406 1835 ft 184 kts 352°
2026-04-16 13:10 16.10004 108.19194 2048 ft 206 kts 351°
2026-04-16 13:11 16.11467 108.18812 2205 ft 228 kts 340°
2026-04-16 13:11 16.12995 108.18125 2328 ft 252 kts 335°
2026-04-16 13:11 16.14647 108.17309 2646 ft 270 kts 334°
2026-04-16 13:11 16.16361 108.16460 3260 ft 275 kts 334°
2026-04-16 13:12 16.18089 108.15598 3973 ft 276 kts 334°
2026-04-16 13:12 16.19821 108.14720 4680 ft 277 kts 334°
2026-04-16 13:12 16.21556 108.13828 5388 ft 278 kts 334°
2026-04-16 13:12 16.23298 108.12928 6054 ft 281 kts 334°
2026-04-16 13:13 16.25055 108.12012 6668 ft 284 kts 334°
2026-04-16 13:13 16.26832 108.11076 6916 ft 287 kts 334°
2026-04-16 13:13 16.28615 108.10138 6983 ft 286 kts 334°
2026-04-16 13:13 16.30396 108.09210 6994 ft 286 kts 334°
2026-04-16 13:14 16.32181 108.08286 6994 ft 286 kts 335°
2026-04-16 13:14 16.33959 108.07359 6996 ft 286 kts 334°
2026-04-16 13:14 16.35738 108.06432 7093 ft 289 kts 334°
2026-04-16 13:14 16.37542 108.05504 7770 ft 289 kts 334°
2026-04-16 13:15 16.39351 108.04579 8432 ft 291 kts 334°
2026-04-16 13:15 16.41181 108.03652 9083 ft 293 kts 334°
2026-04-16 13:15 16.43002 108.02740 9731 ft 296 kts 334°
2026-04-16 13:15 16.44897 108.01801 10046 ft 311 kts 334°
2026-04-16 13:16 16.46916 108.00805 10166 ft 332 kts 334°
2026-04-16 13:16 16.49054 107.99755 10452 ft 345 kts 334°
2026-04-16 13:16 16.51241 107.98689 10976 ft 349 kts 334°
2026-04-16 13:16 16.53451 107.97626 11549 ft 352 kts 334°
2026-04-16 13:17 16.55682 107.96550 12103 ft 355 kts 333°
2026-04-16 13:17 16.57931 107.95473 12677 ft 357 kts 334°
2026-04-16 13:17 16.60186 107.94371 13232 ft 359 kts 333°
2026-04-16 13:17 16.62450 107.93234 13754 ft 363 kts 333°
2026-04-16 13:18 16.64734 107.92084 14230 ft 366 kts 333°
2026-04-16 13:18 16.67031 107.90928 14740 ft 367 kts 332°
2026-04-16 13:18 16.69342 107.89763 15251 ft 370 kts 331°
2026-04-16 13:18 16.71661 107.88594 15730 ft 372 kts 333°
2026-04-16 13:19 16.74009 107.87411 16178 ft 376 kts 331°
2026-04-16 13:19 16.76365 107.86222 16697 ft 377 kts 331°
2026-04-16 13:19 16.78738 107.85025 17176 ft 380 kts 331°
2026-04-16 13:19 16.81126 107.83821 17641 ft 383 kts 331°
2026-04-16 13:20 16.83536 107.82604 18107 ft 386 kts 332°
2026-04-16 13:20 16.85935 107.81394 18472 ft 389 kts 330°
2026-04-16 13:20 16.88375 107.80161 18894 ft 391 kts 331°
2026-04-16 13:20 16.90833 107.78920 19293 ft 394 kts 332°
2026-04-16 13:21 16.93311 107.77669 19702 ft 397 kts 332°
2026-04-16 13:21 16.95806 107.76410 20122 ft 400 kts 332°
2026-04-16 13:21 16.98317 107.75143 20530 ft 402 kts 332°
2026-04-16 13:21 17.00846 107.73865 20942 ft 405 kts 331°
2026-04-16 13:22 17.03391 107.72579 21337 ft 408 kts 332°
2026-04-16 13:22 17.05953 107.71285 21732 ft 410 kts 331°
2026-04-16 13:22 17.08537 107.69980 22132 ft 413 kts 330°
2026-04-16 13:22 17.11134 107.68668 22539 ft 415 kts 331°
2026-04-16 13:23 17.13744 107.67349 22924 ft 418 kts 331°
2026-04-16 13:23 17.16367 107.66024 23294 ft 420 kts 332°
2026-04-16 13:23 17.18973 107.64707 23604 ft 423 kts 331°
2026-04-16 13:23 17.21626 107.63364 23910 ft 424 kts 331°
2026-04-16 13:24 17.24292 107.62015 24242 ft 426 kts 331°
2026-04-16 13:24 17.26962 107.60665 24559 ft 427 kts 332°
2026-04-16 13:24 17.29647 107.59305 24877 ft 429 kts 331°
2026-04-16 13:24 17.32341 107.57940 25212 ft 430 kts 331°
2026-04-16 13:25 17.35034 107.56576 25531 ft 431 kts 331°
2026-04-16 13:25 17.37738 107.55205 25855 ft 432 kts 331°
2026-04-16 13:25 17.40449 107.53831 26162 ft 434 kts 331°
2026-04-16 13:25 17.43173 107.52448 26463 ft 435 kts 331°
2026-04-16 13:26 17.45903 107.51063 26766 ft 437 kts 331°
2026-04-16 13:26 17.48643 107.49671 27067 ft 438 kts 331°
2026-04-16 13:26 17.51392 107.48275 27369 ft 440 kts 331°
2026-04-16 13:26 17.54149 107.46874 27671 ft 441 kts 331°
2026-04-16 13:27 17.56881 107.45486 27955 ft 443 kts 331°
2026-04-16 13:27 17.59660 107.44073 28244 ft 445 kts 331°
2026-04-16 13:27 17.62447 107.42655 28527 ft 446 kts 331°
2026-04-16 13:27 17.65248 107.41230 28809 ft 448 kts 331°
2026-04-16 13:28 17.68059 107.39799 29082 ft 449 kts 331°
2026-04-16 13:28 17.70880 107.38363 29355 ft 451 kts 331°
2026-04-16 13:28 17.73707 107.36923 29620 ft 452 kts 331°
2026-04-16 13:28 17.76540 107.35478 29885 ft 454 kts 331°
2026-04-16 13:29 17.79385 107.34028 30113 ft 455 kts 331°
2026-04-16 13:29 17.82245 107.32570 30330 ft 457 kts 331°
2026-04-16 13:29 17.85111 107.31108 30541 ft 459 kts 331°
2026-04-16 13:29 17.87988 107.29641 30761 ft 460 kts 331°
2026-04-16 13:30 17.89895 107.28667 30903 ft 461 kts 331°
2026-04-16 13:30 17.92780 107.27196 31193 ft 461 kts 331°
2026-04-16 13:30 17.96605 107.25244 31600 ft 460 kts 331°
2026-04-16 13:30 17.99481 107.23777 31896 ft 460 kts 331°
2026-04-16 13:31 18.02353 107.22311 32187 ft 459 kts 331°
2026-04-16 13:31 18.05227 107.20844 32479 ft 459 kts 330°
2026-04-16 13:31 18.07166 107.19854 32673 ft 459 kts 330°
2026-04-16 13:31 18.10039 107.18386 32808 ft 459 kts 330°
2026-04-16 13:32 18.12911 107.16919 32839 ft 459 kts 330°
2026-04-16 13:32 18.18611 107.14007 32833 ft 459 kts 330°
2026-04-16 13:33 18.24356 107.11070 32836 ft 458 kts 330°
2026-04-16 13:33 18.30092 107.08135 32833 ft 458 kts 330°
2026-04-16 13:34 18.35828 107.05200 32844 ft 458 kts 330°
2026-04-16 13:34 18.41563 107.02262 32851 ft 458 kts 330°
2026-04-16 13:35 18.47294 106.99325 32848 ft 458 kts 330°
2026-04-16 13:35 18.52991 106.96404 32853 ft 458 kts 330°
2026-04-16 13:36 18.58724 106.93462 32855 ft 458 kts 330°
2026-04-16 13:36 18.64452 106.90522 32851 ft 458 kts 330°
2026-04-16 13:37 18.70183 106.87579 32862 ft 457 kts 330°
2026-04-16 13:37 18.75861 106.84661 32857 ft 457 kts 330°
2026-04-16 13:38 18.81588 106.81716 32855 ft 457 kts 330°
2026-04-16 13:38 18.87308 106.78774 32853 ft 457 kts 330°
2026-04-16 13:39 18.93023 106.75833 32851 ft 457 kts 330°
2026-04-16 13:39 18.98869 106.73180 32853 ft 463 kts 345°
2026-04-16 13:39 19.02078 106.72861 32841 ft 462 kts 356°
2026-04-16 13:40 19.05247 106.72894 32841 ft 449 kts 357°
2026-04-16 13:40 19.11418 106.73017 32405 ft 438 kts 357°
2026-04-16 13:40 19.14453 106.73101 31965 ft 433 kts 355°
2026-04-16 13:41 19.17410 106.73004 31535 ft 429 kts 354°
2026-04-16 13:41 19.20381 106.72896 31111 ft 425 kts 354°
2026-04-16 13:41 19.23340 106.72791 30686 ft 422 kts 354°
2026-04-16 13:41 19.26261 106.72686 30276 ft 419 kts 354°
2026-04-16 13:42 19.29160 106.72582 29857 ft 415 kts 353°
2026-04-16 13:42 19.32050 106.72478 29383 ft 412 kts 354°
2026-04-16 13:42 19.34870 106.72366 28909 ft 409 kts 353°
2026-04-16 13:42 19.37707 106.72260 28458 ft 407 kts 353°
2026-04-16 13:43 19.40533 106.72161 28014 ft 405 kts 355°
2026-04-16 13:43 19.43354 106.72173 27589 ft 404 kts 356°
2026-04-16 13:43 19.46158 106.72225 27176 ft 402 kts 356°
2026-04-16 13:43 19.48947 106.72280 26783 ft 400 kts 357°
2026-04-16 13:44 19.51718 106.72334 26383 ft 398 kts 357°
2026-04-16 13:44 19.54476 106.72389 25982 ft 395 kts 357°
2026-04-16 13:44 19.57225 106.72443 25583 ft 393 kts 357°
2026-04-16 13:44 19.59953 106.72497 25182 ft 391 kts 357°
2026-04-16 13:45 19.62670 106.72550 24792 ft 389 kts 357°
2026-04-16 13:45 19.65371 106.72604 24404 ft 387 kts 357°
2026-04-16 13:45 19.68055 106.72625 24018 ft 385 kts 356°
2026-04-16 13:45 19.70721 106.72630 23638 ft 382 kts 356°
2026-04-16 13:46 19.73380 106.72624 23214 ft 380 kts 355°
2026-04-16 13:46 19.75979 106.72585 22769 ft 377 kts 355°
2026-04-16 13:46 19.78600 106.72540 22340 ft 374 kts 355°
2026-04-16 13:46 19.81196 106.72494 21913 ft 371 kts 355°
2026-04-16 13:47 19.83772 106.72447 21496 ft 369 kts 355°
2026-04-16 13:47 19.86327 106.72401 21085 ft 366 kts 355°
2026-04-16 13:47 19.88863 106.72369 20677 ft 364 kts 356°
2026-04-16 13:47 19.91387 106.72404 20274 ft 361 kts 357°
2026-04-16 13:48 19.93868 106.72449 20103 ft 351 kts 357°
2026-04-16 13:48 19.96268 106.72495 19980 ft 340 kts 357°
2026-04-16 13:48 19.98594 106.72540 19857 ft 329 kts 357°
2026-04-16 13:48 20.00846 106.72583 19752 ft 319 kts 357°
2026-04-16 13:49 20.03044 106.72624 19464 ft 315 kts 357°
2026-04-16 13:49 20.05175 106.72664 19320 ft 306 kts 357°
2026-04-16 13:49 20.07295 106.72703 19060 ft 303 kts 357°
2026-04-16 13:49 20.09392 106.72740 18762 ft 300 kts 356°
2026-04-16 13:50 20.11472 106.72734 18468 ft 298 kts 355°
2026-04-16 13:50 20.13536 106.72698 18103 ft 296 kts 355°
2026-04-16 13:50 20.15625 106.72656 17173 ft 304 kts 355°
2026-04-16 13:50 20.17746 106.72599 16362 ft 305 kts 354°
2026-04-16 13:51 20.19855 106.72521 15694 ft 301 kts 354°
2026-04-16 13:51 20.21933 106.72442 15078 ft 296 kts 354°
2026-04-16 13:51 20.23978 106.72363 14466 ft 292 kts 354°
2026-04-16 13:51 20.25995 106.72285 13872 ft 288 kts 354°
2026-04-16 13:52 20.27988 106.72208 13228 ft 285 kts 354°
2026-04-16 13:52 20.29958 106.72132 12578 ft 282 kts 354°
2026-04-16 13:52 20.31915 106.72057 11924 ft 280 kts 354°
2026-04-16 13:52 20.33834 106.71983 11302 ft 278 kts 355°
2026-04-16 13:53 20.35764 106.71909 10683 ft 276 kts 355°
2026-04-16 13:53 20.37680 106.71836 10088 ft 274 kts 355°
2026-04-16 13:53 20.39583 106.71764 9483 ft 273 kts 355°
2026-04-16 13:53 20.41456 106.71694 8998 ft 265 kts 355°
2026-04-16 13:54 20.43285 106.71625 8444 ft 261 kts 355°
2026-04-16 13:54 20.45097 106.71566 7851 ft 260 kts 357°
2026-04-16 13:54 20.46897 106.71601 7252 ft 259 kts 360°
2026-04-16 13:54 20.48691 106.71690 6677 ft 257 kts
2026-04-16 13:55 20.50477 106.71811 6078 ft 257 kts
2026-04-16 13:55 20.52257 106.71941 5493 ft 255 kts
2026-04-16 13:55 20.54010 106.72070 5081 ft 249 kts
2026-04-16 13:55 20.55760 106.72199 4990 ft 252 kts
2026-04-16 13:56 20.57514 106.72257 4989 ft 251 kts 348°
2026-04-16 13:56 20.59094 106.71590 4995 ft 243 kts 317°
2026-04-16 13:56 20.60104 106.70197 4999 ft 237 kts 287°
2026-04-16 13:56 20.60457 106.68514 5003 ft 237 kts 275°
2026-04-16 13:57 20.60692 106.66773 5005 ft 238 kts 278°
2026-04-16 13:57 20.61009 106.65034 5002 ft 239 kts 279°
2026-04-16 13:57 20.61389 106.63294 4996 ft 241 kts 281°
2026-04-16 13:58 20.62659 106.59986 4772 ft 240 kts 296°
2026-04-16 13:58 20.63546 106.58473 4435 ft 241 kts 303°
2026-04-16 13:58 20.64629 106.57096 4085 ft 243 kts 311°
2026-04-16 13:58 20.65813 106.55813 3749 ft 243 kts 314°
2026-04-16 13:59 20.67063 106.54597 3399 ft 244 kts 319°
2026-04-16 13:59 20.68378 106.53481 3203 ft 236 kts 324°
2026-04-16 13:59 20.69722 106.52568 3088 ft 230 kts 329°
2026-04-16 13:59 20.71107 106.51714 2995 ft 229 kts 330°
2026-04-16 14:00 20.72550 106.50996 2997 ft 230 kts 341°
2026-04-16 14:00 20.74111 106.50762 2994 ft 227 kts 11°
2026-04-16 14:00 20.75486 106.51433 2986 ft 208 kts 46°
2026-04-16 14:00 20.76200 106.52648 2877 ft 184 kts 74°
2026-04-16 14:01 20.76588 106.53895 2748 ft 171 kts 78°
2026-04-16 14:01 20.76919 106.55080 2578 ft 163 kts 79°
2026-04-16 14:01 20.77228 106.56238 2316 ft 162 kts 81°
2026-04-16 14:01 20.77429 106.57405 2088 ft 158 kts 88°
2026-04-16 14:02 20.77571 106.58535 1889 ft 146 kts 88°
2026-04-16 14:02 20.77870 106.59583 1775 ft 148 kts 75°
2026-04-16 14:02 20.78236 106.60593 1734 ft 146 kts 77°
2026-04-16 14:02 20.78562 106.61609 1662 ft 145 kts 78°
2026-04-16 14:03 20.78862 106.62638 1468 ft 144 kts 80°
2026-04-16 14:03 20.79137 106.63668 1244 ft 146 kts 79°
2026-04-16 14:03 20.79426 106.64704 1036 ft 146 kts 78°
2026-04-16 14:03 20.79731 106.65730 878 ft 145 kts 76°
2026-04-16 14:04 20.80036 106.66751 756 ft 143 kts 76°
2026-04-16 14:04 20.80340 106.67774 652 ft 145 kts 76°
2026-04-16 14:04 20.80645 106.68797 489 ft 145 kts 75°
2026-04-16 14:04 20.80952 106.69827 304 ft 145 kts 77°
2026-04-16 14:05 20.81256 106.70849 105 ft 144 kts 75°
2026-04-16 14:05 20.81542 106.71825 25 ft 121 kts 73°
2026-04-16 14:05 20.81750 106.72507 25 ft 72 kts 72°
2026-04-16 14:05 20.81874 106.72922 27 ft 51 kts 72°
2026-04-16 14:06 20.81971 106.73246 27 ft 39 kts 72°
2026-04-16 14:06 20.82043 106.73489 24 ft 32 kts 72°
2026-04-16 14:06 20.82086 106.73628 24 ft 10 kts 66°
2026-04-16 14:06 20.82121 106.73679 25 ft 8 kts 41°
2026-04-16 14:07 20.82171 106.73724 28 ft 10 kts 40°
2026-04-16 14:07 20.82242 106.73726 25 ft 11 kts 320°
2026-04-16 14:07 20.82217 106.73668 25 ft 11 kts 187°
2026-04-16 14:07 20.82137 106.73682 25 ft 12 kts 182°
2026-04-16 14:08 20.82079 106.73606 25 ft 17 kts 251°
2026-04-16 14:08 20.82039 106.73472 25 ft 22 kts 252°
2026-04-16 14:08 20.81990 106.73308 28 ft 24 kts 252°
2026-04-16 14:08 20.81940 106.73140 27 ft 24 kts 252°
2026-04-16 14:09 20.81890 106.72975 27 ft 23 kts 252°
2026-04-16 14:09 20.81840 106.72806 26 ft 25 kts 252°
2026-04-16 14:09 20.81787 106.72629 31 ft 25 kts 252°
2026-04-16 14:09 20.81731 106.72443 24 ft 27 kts 252°
2026-04-16 14:10 20.81713 106.72310 26 ft 11 kts 305°
2026-04-16 14:10 20.81790 106.72276 24 ft 13 kts 343°
2026-04-16 14:10 20.81878 106.72247 25 ft 14 kts 342°
2026-04-16 14:10 20.81953 106.72250 26 ft 11 kts 44°
2026-04-16 14:11 20.81982 106.72331 25 ft 13 kts 72°
2026-04-16 14:11 20.82010 106.72426 25 ft 14 kts 72°
2026-04-16 14:11 20.82039 106.72517 25 ft 11 kts 62°
2026-04-16 14:11 20.82094 106.72520 25 ft 9 kts 344°
2026-04-16 14:12 20.82122 106.72510 25 ft 3 kts 341°
2026-04-16 14:12 20.82133 106.72506 25 ft 2 kts 342°
2026-04-16 14:12 20.82142 106.72503 25 ft 0 kts 342°